This is the latest recevied weather packets stored in our database for station/object N0QWM. If no packets are shown the sender has not sent any weather packets the latest 10 day(s).
| Time | Temp. | Humidity | Pressure | Rain* | Wind** | Luminosity | Snow |
|---|---|---|---|---|---|---|---|
| 1788047192 | 30.56° C | 71% | 1022.2 hPa | 0 mm | - | 13 W/m² | - |
| 1788046886 | 30.56° C | 70% | 1022.1 hPa | 0 mm | - | 17 W/m² | - |
| 1788046585 | 30.56° C | 69% | 1022.2 hPa | 0 mm | - | 20 W/m² | - |
| 1788046280 | 30.56° C | 68% | 1022.4 hPa | 0 mm | - | 22 W/m² | - |
| 1788045979 | 30.56° C | 67% | 1022.4 hPa | 0 mm | - | 20 W/m² | - |
| 1788045674 | 30.56° C | 64% | 1022.4 hPa | 0 mm | - | 16 W/m² | - |
| 1788045368 | 31.11° C | 64% | 1022.1 hPa | 0 mm | - | 17 W/m² | - |
| 1788045064 | 31.11° C | 62% | 1022.1 hPa | 0 mm | - | 16 W/m² | - |
| 1788044762 | 31.11° C | 62% | 1022.2 hPa | 0 mm | - | 16 W/m² | - |
| 1788044458 | 31.67° C | 63% | 1021.9 hPa | 0 mm | - | 15 W/m² | - |
| 1788044157 | 31.67° C | 62% | 1021.8 hPa | 0 mm | - | 16 W/m² | - |
| 1788043854 | 31.67° C | 61% | 1022 hPa | 0 mm | - | 20 W/m² | - |
| 1788043554 | 32.22° C | 60% | 1021.7 hPa | 0 mm | - | 24 W/m² | - |
| 1788043248 | 32.78° C | 60% | 1022.1 hPa | 0 mm | - | 36 W/m² | - |
| 1788042943 | 32.78° C | 60% | 1022 hPa | 0 mm | - | 51 W/m² | - |
| 1788042640 | 32.78° C | 60% | 1022.2 hPa | 0 mm | - | 53 W/m² | - |
| 1788042337 | 32.78° C | 59% | 1022 hPa | 0 mm | - | 69 W/m² | - |
| 1788042033 | 33.33° C | 59% | 1022 hPa | 0 mm | - | 57 W/m² | - |
| 1788041728 | 32.78° C | 60% | 1022 hPa | 0 mm | - | 59 W/m² | - |
| 1788041423 | 32.78° C | 59% | 1022.3 hPa | 0 mm | - | 58 W/m² | - |
| 1788041122 | 32.78° C | 59% | 1022 hPa | 0 mm | - | 79 W/m² | - |
| 1788040817 | 32.22° C | 60% | 1021.8 hPa | 0 mm | - | 180 W/m² | - |
| 1788040510 | 32.22° C | 60% | 1021.7 hPa | 0 mm | - | 72 W/m² | - |
| 1788040207 | 32.78° C | 61% | 1021.8 hPa | 0 mm | - | 33 W/m² | - |
| 1788039917 | 33.89° C | 59% | 1021.9 hPa | 0 mm | - | 36 W/m² | - |
* Rain latest hour (hover to see other rain measurements)
** Current wind speed in m/s (hover to see current wind gust speed)